Starlink 32738

operational
NORAD ID: 63046 Int'l Des: 2025-034 Owner: SPXS Country: US Constellation: starlink
LEOCIRCULAR

About Starlink 32738

Description loading...

Live Position

Loading 3D Globe...

Upcoming Passes

Altitude History

Altitude vs Time

uPlot chart will show altitude changes over time

Two-Line Element Set

1 63046U 25034T 26102.41211560 .00018187 00000-0 62451-3 0 9990
2 63046 53.1607 101.2189 0000245 95.9634 264.1395 15.30208033 64254
Epoch: Apr 12, 2026 • Age: 11 hours

Current Status

Altitude 493.8 km
Velocity 7.62 km/s
Sub-Earth Point -53.06°S, 146.38°W
Launch Date Feb 18, 2025
Age 1.1 years
Type internet

Technical Details

Classification Payload
Mass 730.00 kg
Dry Mass 700.00 kg
Total Mass 730.00 kg
Length 0.30 m
Diameter 4.10 m
Span 29.00 m
Shape Box + pan
Manufacturer SPXS
Bus Type Starlink V2M
Phase Status In Orbit
Owner/State SPXS/US

Large Constellations

Loading constellations...